M0SDM Weather Reports


time (UTC)temp
C
wind
direction
speed
KPH
gust
KPH
rain 1hr
cm
rain 24hr
cm
rain mn
cm
humidity
%
barometer
mb
20260506072521 7 324 1.6 3.2 0.00 0.00 0.00 86 1014.6
20260506071021 6 22 0.0 3.2 0.00 0.00 0.00 85 1014.7
20260506061021 4 111 0.0 6.4 0.00 0.00 0.00 93 1014.3
20260506051021 3 99 0.0 3.2 0.00 0.00 0.00 94 1013.9
20260506044021 3 225 0.0 3.2 0.00 0.00 0.00 94 1013.8
20260506042521 4 155 0.0 3.2 0.00 0.00 0.00 94 1013.9
20260506041021 4 97 1.6 3.2 0.00 0.00 0.00 93 1014.2
20260506035521 5 0 0.0 0.0 0.00 0.00 0.00 93 1014.2
20260506034021 5 157 0.0 3.2 0.00 0.00 0.00 92 1013.9
20260506032521 5 67 0.0 3.2 0.00 0.00 0.00 91 1013.9
20260506031021 6 360 0.0 3.2 0.00 0.00 0.00 91 1013.9
20260506025521 6 293 0.0 3.2 0.00 0.00 0.00 90 1013.8
20260506024022 6 123 0.0 3.2 0.00 0.00 0.00 90 1014.1
20260506022521 6 94 0.0 3.2 0.00 0.00 0.00 90 1014.1
20260506021021 6 119 1.6 6.4 0.00 0.00 0.00 89 1014.1
20260506015521 6 292 0.0 3.2 0.00 0.00 0.00 89 1014.1
20260506014021 6 271 0.0 3.2 0.00 0.00 0.00 88 1014.3
20260506012521 6 305 0.0 3.2 0.00 0.00 0.00 88 1014.2
20260506011021 6 82 0.0 6.4 0.00 0.00 0.00 86 1014.1
20260506005521 6 50 0.0 6.4 0.00 0.00 0.00 86 1014.2
20260506004021 6 320 0.0 6.4 0.00 0.00 0.00 84 1014.2
20260506002521 7 313 0.0 3.2 0.00 0.00 0.00 84 1014.2
20260506001021 7 270 0.0 6.4 0.00 0.00 0.00 83 1014.2
20260505235521 7 288 0.0 3.2 0.00 0.00 0.00 82 1014.1
20260505234021 7 314 0.0 3.2 0.00 0.00 0.00 81 1014.2
20260505232521 7 288 0.0 3.2 0.00 0.00 0.00 80 1014.4
20260505231021 7 329 0.0 6.4 0.00 0.00 0.00 80 1014.4
20260505225521 7 27 0.0 3.2 0.00 0.00 0.00 80 1014.3
20260505224021 7 58 1.6 6.4 0.00 0.00 0.00 79 1014.2
20260505222521 8 324 0.0 6.4 0.00 0.00 0.00 80 1014.1
20260505221021 8 15 0.0 3.2 0.00 0.00 0.00 80 1014.5
20260505215521 8 310 0.0 6.4 0.00 0.00 0.00 79 1014.2
20260505214021 8 284 1.6 6.4 0.00 0.00 0.00 80 1013.9
20260505212521 8 259 1.6 6.4 0.00 0.00 0.00 83 1013.8
20260505211021 8 283 1.6 3.2 0.00 0.00 0.00 83 1013.8
20260505205521 8 249 1.6 6.4 0.00 0.00 0.00 82 1014.0
20260505204021 8 267 3.2 6.4 0.00 0.00 0.00 80 1013.6
20260505202521 9 242 0.0 3.2 0.00 0.00 0.00 79 1013.5
20260505201021 9 255 1.6 3.2 0.00 0.00 0.00 78 1013.2
20260505195521 9 184 0.0 3.2 0.00 0.00 0.00 77 1013.2
20260505194021 10 328 1.6 12.9 0.00 0.00 0.00 80 1013.2
20260505192521 10 251 1.6 6.4 0.00 0.00 0.00 81 1012.8
20260505191021 10 163 3.2 6.4 0.00 0.00 0.00 80 1012.7
20260505185521 10 290 3.2 6.4 0.00 0.00 0.00 80 1012.6
20260505184021 11 166 0.0 11.3 0.00 0.00 0.00 78 1012.0
20260505182521 11 274 0.0 3.2 0.00 0.00 0.00 78 1011.9
20260505181021 11 292 0.0 9.7 0.00 0.00 0.00 76 1011.8
20260505175521 11 309 1.6 6.4 0.00 0.00 0.00 76 1011.7
20260505174021 12 327 1.6 6.4 0.00 0.00 0.00 76 1011.3
20260505172521 12 272 3.2 9.7 0.00 0.00 0.00 75 1011.3
20260505171021 13 208 1.6 6.4 0.00 0.00 0.00 70 1011.0
20260505165521 13 349 3.2 6.4 0.00 0.00 0.00 66 1011.0
20260505164021 14 66 1.6 6.4 0.00 0.00 0.00 57 1010.9
20260505162521 14 14 1.6 6.4 0.00 0.00 0.00 56 1010.8
20260505161021 14 44 1.6 3.2 0.00 0.00 0.00 57 1010.6
20260505152521 15 101 0.0 6.4 0.00 0.00 0.00 55 1010.6
20260505151021 15 69 0.0 6.4 0.00 0.00 0.00 55 1011.0
20260505124021 15 128 1.6 6.4 0.00 0.00 0.00 59 1010.9
20260505122521 15 118 1.6 6.4 0.00 0.00 0.00 59 1010.9
20260505121021 15 141 0.0 3.2 0.00 0.00 0.00 57 1010.9
20260505115521 15 121 0.0 3.2 0.00 0.00 0.00 57 1010.9
20260505114021 15 202 1.6 6.4 0.00 0.00 0.00 59 1011.2
20260505112521 16 187 0.0 3.2 0.00 0.00 0.00 56 1011.5
20260505111021 15 15 1.6 9.7 0.00 0.00 0.00 60 1011.7
20260505101021 14 49 0.0 6.4 0.00 0.00 0.00 67 1012.5
20260505095521 14 121 0.0 9.7 0.00 0.00 0.00 68 1012.5
20260505094021 13 136 3.2 3.2 0.00 0.00 0.00 69 1012.7
20260505092521 14 168 1.6 3.2 0.00 0.00 0.00 71 1012.9
20260505091021 13 129 1.6 3.2 0.00 0.00 0.00 73 1013.1
20260505085521 12 158 1.6 3.2 0.00 0.00 0.00 74 1013.4
20260505084021 11 8 0.0 3.2 0.00 0.00 0.00 81 1013.4
20260505082521 10 314 0.0 6.4 0.00 0.00 0.00 84 1013.3
20260505081021 10 65 0.0 6.4 0.00 0.00 0.00 86 1013.5
20260505075521 10 95 0.0 3.2 0.00 0.00 0.00 85 1013.4
20260505074021 9 120 0.0 3.2 0.00 0.00 0.00 88 1013.5